Date,TemperatureHighF,TemperatureAvgF,TemperatureLowF,DewpointHighF,DewpointAvgF,DewpointLowF,HumidityHigh,HumidityAvg,HumidityLow,PressureMaxIn,PressureMinIn,WindSpeedMaxMPH,WindSpeedAvgMPH,GustSpeedMaxMPH,PrecipitationSumIn
2013-1-1,20,8,-3,12,2,-6,93,80,52,0.00,40.00,10,4,16,0.00
2013-1-2,26,9,-6,10,2,-9,89,74,44,0.00,40.00,8,4,13,0.00
2013-1-3,21,0,-13,4,-7,-15,87,75,42,0.00,40.00,11,5,15,0.00
2013-1-4,24,3,-9,10,-4,-12,88,75,42,0.00,40.00,11,5,11,0.00
2013-1-5,25,5,-7,9,-1,-9,89,76,43,0.00,40.00,9,5,12,0.00
2013-1-6,30,10,-7,11,1,-10,88,70,32,0.00,40.00,9,5,12,0.00
2013-1-7,34,12,0,13,4,-3,90,71,33,0.00,40.00,9,5,12,0.00
2013-1-8,35,16,4,13,6,-1,85,67,35,0.00,40.00,9,4,11,0.00
2013-1-9,38,15,1,19,8,-1,92,75,39,0.00,40.00,10,5,13,0.00
2013-1-10,41,23,5,25,13,3,91,69,34,0.00,40.00,9,-3,16,0.00
2013-1-11,37,21,2,27,10,-4,96,64,28,0.00,40.00,16,5,22,0.00
2013-1-12,19,4,-11,5,-4,-15,86,73,34,0.00,40.00,11,5,15,0.00
2013-1-13,14,4,-7,6,-2,-11,87,74,50,0.00,40.00,9,4,14,0.00
2013-1-14,14,-1,-17,0,-8,-21,88,75,42,0.00,40.00,9,4,13,0.00
2013-1-15,15,-2,-18,-3,-11,-22,83,67,42,0.00,40.00,8,4,10,0.00
2013-1-16,27,7,-4,10,0,-8,90,74,45,0.00,40.00,10,4,12,0.00
2013-1-17,31,11,-3,18,5,-4,92,79,47,0.00,40.00,9,5,10,0.00
2013-1-18,38,11,-2,15,4,-3,93,78,36,0.00,40.00,9,5,12,0.00
2013-1-19,40,13,-1,14,5,-3,90,71,32,0.00,40.00,10,5,12,0.00
2013-1-20,39,14,0,13,4,-3,87,68,30,0.00,40.00,9,5,12,0.00
2013-1-21,42,16,1,14,5,-2,86,66,30,0.00,40.00,11,5,14,0.00
2013-1-22,40,15,0,11,3,-4,83,62,25,0.00,40.00,11,5,12,0.00
2013-1-23,42,18,0,14,5,-5,81,60,26,0.00,40.00,10,5,12,0.00
2013-1-24,26,17,13,15,10,7,79,75,61,0.00,40.00,9,4,12,0.00
2013-1-25,39,36,34,35,34,32,94,89,84,0.00,40.00,8,3,11,0.00
2013-1-26,43,35,28,33,31,27,96,87,52,0.00,40.00,9,2,12,0.00
2013-1-27,49,36,29,41,30,22,96,82,43,0.00,40.00,8,2,14,0.00
2013-1-28,37,29,18,32,27,17,95,90,65,0.00,40.00,14,5,22,0.30
2013-1-29,27,16,7,19,11,6,95,81,50,0.00,40.00,10,3,17,0.00
2013-1-30,24,16,5,18,13,3,93,87,72,0.00,40.00,8,3,12,0.00
2013-1-31,39,28,21,29,22,19,94,79,48,0.00,40.00,9,3,13,0.00
2013-2-1,39,27,17,24,20,14,90,75,47,0.00,40.00,11,4,16,0.00
2013-2-2,38,19,4,22,12,2,93,75,41,0.00,40.00,8,5,14,0.00
2013-2-3,40,21,10,19,11,5,90,69,30,0.00,40.00,12,5,21,0.00
2013-2-4,43,19,2,20,10,1,92,71,33,0.00,40.00,11,4,12,0.00
2013-2-5,44,21,6,22,13,4,92,72,32,0.00,40.00,12,5,17,0.00
2013-2-6,40,27,11,32,21,10,94,82,46,0.00,40.00,12,4,17,0.00
2013-2-7,40,26,11,26,16,4,95,69,27,0.00,40.00,9,4,12,0.00
2013-2-8,49,27,8,29,13,3,90,60,23,0.00,40.00,11,4,22,0.00
2013-2-9,35,26,11,33,23,7,96,88,53,0.00,40.00,14,3,22,0.10
2013-2-10,35,16,-1,15,7,-3,92,73,34,0.00,40.00,8,4,12,0.00
2013-2-11,31,17,5,21,12,3,90,81,42,0.00,40.00,17,4,22,0.00
2013-2-12,31,15,3,9,5,0,90,66,32,0.00,40.00,9,4,12,0.00
2013-2-13,39,25,15,19,14,9,81,65,37,0.00,40.00,9,3,12,0.00
2013-2-14,36,26,19,29,17,11,90,68,41,0.00,40.00,16,4,25,0.00
2013-2-15,35,23,11,20,12,5,88,64,38,0.00,40.00,14,4,23,0.00
2013-2-16,37,15,3,16,7,0,89,71,37,0.00,40.00,12,6,15,0.00
2013-2-17,51,28,9,26,11,1,91,57,14,0.00,40.00,17,5,24,0.00
2013-2-18,36,20,6,22,8,0,92,63,27,0.00,40.00,14,4,21,0.00
2013-2-19,42,19,-2,12,4,-5,86,58,23,0.00,40.00,9,5,13,0.00
2013-2-20,41,27,14,27,14,5,94,61,29,0.00,40.00,11,5,16,0.00
2013-2-21,34,27,19,26,22,16,95,81,51,0.00,40.00,12,4,18,0.00
2013-2-22,31,19,4,18,11,-1,91,72,38,0.00,40.00,12,5,19,0.00
2013-2-23,36,18,-1,22,10,-5,91,72,43,0.00,40.00,11,5,21,0.00
2013-2-24,30,22,9,22,16,4,95,80,54,0.00,40.00,15,4,24,0.00
2013-2-25,36,15,-3,11,4,-6,90,67,29,0.00,40.00,9,4,12,0.00
2013-2-26,27,19,6,20,14,3,92,80,52,0.00,40.00,13,5,22,0.00
2013-2-27,34,15,0,12,2,-4,92,63,24,0.00,40.00,10,5,13,0.00
2013-2-28,36,18,-4,20,4,-9,83,58,27,0.00,40.00,11,5,16,0.00
2013-3-1,41,29,21,31,22,18,90,77,47,0.00,40.00,11,4,16,0.00
2013-3-2,53,33,18,28,22,9,89,67,29,0.00,40.00,10,4,12,0.00
2013-3-3,49,35,23,34,24,19,95,68,33,0.00,40.00,11,4,21,0.00
2013-3-4,40,30,12,38,23,5,95,77,37,0.00,40.00,17,4,28,0.10
2013-3-5,45,20,2,13,6,-2,82,57,21,0.00,40.00,10,6,13,0.00
2013-3-6,60,34,14,22,14,7,76,49,13,0.00,40.00,10,4,18,0.00
2013-3-7,60,40,26,21,16,6,67,44,12,0.00,40.00,11,4,21,0.00
2013-3-8,53,38,27,31,22,17,91,56,24,0.00,40.00,9,4,16,0.00
2013-3-9,33,28,21,31,27,18,95,94,92,0.00,40.00,11,2,19,0.20
2013-3-10,42,23,5,23,15,4,95,75,35,0.00,40.00,8,4,12,0.00
2013-3-11,46,28,12,30,18,10,91,68,33,0.00,40.00,9,4,12,0.00
2013-3-12,51,38,28,33,25,19,91,64,29,0.00,40.00,12,3,18,0.00
2013-3-13,54,36,21,25,21,15,90,61,20,0.00,40.00,10,5,15,0.00
2013-3-14,61,38,21,26,21,16,87,57,20,0.00,40.00,9,5,12,0.00
2013-3-15,65,42,26,30,24,19,85,55,20,0.00,40.00,12,5,13,0.00
2013-3-16,47,41,32,39,33,27,94,73,56,0.00,40.00,11,4,19,0.00
2013-3-17,44,35,26,37,25,11,95,71,30,0.00,40.00,15,5,26,0.00
2013-3-18,45,34,25,17,13,9,65,42,26,0.00,40.00,16,4,25,0.00
2013-3-19,48,34,22,21,7,-11,76,40,9,0.00,40.00,11,4,21,0.00
2013-3-20,49,32,15,29,15,4,77,51,27,0.00,40.00,12,4,21,0.00
2013-3-21,39,34,23,37,30,20,95,85,53,0.00,40.00,20,3,31,0.30
2013-3-22,42,28,16,21,14,3,92,60,25,0.00,40.00,14,-1,25,0.00
2013-3-23,28,22,12,20,12,4,90,65,40,0.00,40.00,16,5,25,0.00
2013-3-24,29,15,2,15,4,-3,79,62,35,0.00,40.00,16,6,25,0.00
2013-3-25,40,18,-1,10,0,-7,77,51,19,0.00,40.00,12,6,14,0.00
2013-3-26,55,33,12,24,13,5,73,48,20,0.00,40.00,12,5,22,0.00
2013-3-27,58,42,29,30,22,11,89,50,19,0.00,40.00,12,4,23,0.00
2013-3-28,60,41,25,27,22,17,83,53,21,0.00,40.00,9,4,17,0.00
2013-3-29,59,44,34,31,27,23,78,52,27,0.00,40.00,11,4,20,0.00
2013-3-30,60,43,27,35,23,-100,94,55,20,0.00,40.00,15,5,25,0.00
2013-3-31,64,42,23,28,21,12,90,52,15,0.00,40.00,10,4,18,0.00
2013-4-1,62,44,29,39,27,22,82,55,27,0.00,40.00,18,-3,33,0.00
2013-4-2,53,40,30,33,29,24,90,66,33,0.00,40.00,17,5,25,0.00
2013-4-3,59,43,31,38,26,10,93,58,14,0.00,40.00,14,4,24,0.00
2013-4-4,66,46,26,29,23,18,85,48,17,0.00,40.00,11,4,21,0.00
2013-4-5,63,46,32,40,27,20,94,53,22,0.00,40.00,17,4,33,0.00
2013-4-6,58,44,32,45,29,17,95,63,21,0.00,40.00,13,3,21,0.00
2013-4-7,52,40,27,39,28,20,95,67,31,0.00,40.00,16,4,29,0.00
2013-4-8,63,45,30,37,26,11,90,52,16,0.00,40.00,15,5,32,0.00
2013-4-9,39,31,18,37,28,16,94,90,76,0.00,40.00,15,6,24,0.10
2013-4-10,37,24,13,18,14,11,91,67,39,0.00,40.00,15,4,20,0.00
2013-4-11,49,36,28,31,24,17,82,63,36,0.00,40.00,11,3,19,0.00
2013-4-12,57,40,29,37,24,9,94,62,16,0.00,40.00,14,4,22,0.00
2013-4-13,59,42,25,37,20,9,92,49,15,0.00,40.00,14,6,37,0.10
2013-4-14,45,36,21,32,23,9,95,64,24,0.00,40.00,14,3,25,0.00
2013-4-15,39,33,27,33,30,26,95,90,65,0.00,40.00,12,2,18,0.30
2013-4-16,61,37,22,38,27,19,95,72,20,0.00,40.00,18,5,29,0.00
2013-4-17,33,26,20,26,20,10,93,76,49,0.00,40.00,17,6,25,0.00
2013-4-18,33,24,13,14,9,3,90,56,31,0.00,40.00,17,5,26,0.00
2013-4-19,47,32,15,31,15,8,88,52,26,0.00,40.00,12,4,17,0.00
2013-4-20,50,38,31,37,31,25,94,79,40,0.00,40.00,14,3,22,0.10
2013-4-21,55,42,28,39,25,13,95,60,20,0.00,40.00,10,2,15,0.00
2013-4-22,53,43,31,31,24,13,86,48,24,0.00,40.00,15,6,27,0.00
2013-4-23,42,34,27,32,17,0,94,58,18,0.00,40.00,15,6,24,0.00
2013-4-24,51,35,20,16,8,-1,72,38,11,0.00,40.00,12,5,23,0.00
2013-4-25,63,42,24,22,15,7,77,41,12,0.00,40.00,14,4,28,0.00
2013-4-26,63,45,26,25,15,1,79,39,9,0.00,40.00,12,5,17,0.00
2013-4-27,67,46,23,26,18,10,77,40,12,0.00,40.00,11,5,19,0.00
2013-4-28,71,50,22,28,22,15,77,40,14,0.00,40.00,16,5,20,0.00
2013-4-29,74,56,35,33,26,18,73,36,14,0.00,40.00,17,6,28,0.00
2013-4-30,69,55,34,36,27,22,70,37,19,0.00,40.00,21,6,30,0.00
2013-5-1,49,37,27,38,29,21,94,74,47,0.00,40.00,17,5,24,0.20
2013-5-2,52,35,20,25,16,6,91,54,16,0.00,40.00,9,4,19,0.00
2013-5-3,65,42,21,23,15,3,83,43,9,0.00,40.00,10,5,18,0.00
2013-5-4,68,48,26,26,20,11,78,39,12,0.00,40.00,14,5,23,0.00
2013-5-5,68,53,36,31,24,15,70,36,14,0.00,40.00,13,6,22,0.00
2013-5-6,62,47,40,42,33,26,94,62,29,0.00,40.00,11,2,21,0.00
2013-5-7,51,41,33,43,33,21,94,77,35,0.00,40.00,13,3,20,0.00
2013-5-8,42,36,25,39,33,24,95,89,71,0.00,40.00,10,2,16,0.00
2013-5-9,63,42,29,38,32,24,94,73,26,0.00,40.00,8,2,17,0.00
2013-5-10,66,47,27,37,25,-100,94,52,18,0.00,40.00,9,4,19,0.00
2013-5-11,68,48,28,32,23,-100,90,48,14,0.00,40.00,12,5,21,0.00
2013-5-12,71,52,32,35,28,23,81,45,18,0.00,40.00,12,4,17,0.00
2013-5-13,68,42,28,37,30,22,86,66,28,0.00,40.00,10,5,12,0.00
2013-6-12,88,62,28,41,32,23,81,40,12,0.00,40.00,13,5,22,0.00
2013-6-13,81,62,46,45,36,30,66,40,18,0.00,40.00,13,5,27,0.00
2013-6-14,85,65,41,47,32,23,76,36,11,0.00,40.00,13,4,22,0.00
2013-6-15,80,56,26,37,31,20,80,43,18,0.00,40.00,16,5,29,0.00
2013-6-16,72,53,31,54,42,28,92,68,35,0.00,40.00,10,3,24,0.00
2013-6-17,76,55,32,44,32,20,95,52,13,0.00,40.00,14,4,27,0.00
2013-6-18,85,61,34,43,32,23,84,42,11,0.00,40.00,9,4,22,0.00
2013-6-19,81,59,34,31,22,12,67,31,9,0.00,40.00,12,5,30,0.00
2013-7-12,82,64,50,59,50,42,93,67,23,0.00,40.00,12,4,24,0.10
2013-7-13,84,67,53,57,49,44,93,59,24,0.00,40.00,14,4,20,0.00
2013-7-14,86,69,53,52,46,41,90,52,20,0.00,40.00,9,4,18,0.00
2013-7-15,84,71,49,58,46,42,89,47,25,0.00,40.00,7,2,19,0.00
2013-7-16,88,75,49,57,46,41,88,42,19,0.00,40.00,9,5,16,0.00
2013-7-17,89,69,51,59,52,44,90,60,21,0.00,40.00,14,4,21,0.00
2013-7-18,85,65,50,56,51,45,93,65,27,0.00,40.00,9,3,19,0.00
2013-7-20,80,78,78,45,45,45,30,30,29,0.00,40.00,9,7,12,0.00
2013-7-22,82,70,59,39,36,27,48,31,13,0.00,40.00,8,3,11,0.00
2013-7-23,48,48,48,35,35,35,60,60,60,0.00,40.00,4,4,7,0.00
2013-7-24,75,69,54,45,41,38,63,37,27,0.00,40.00,7,2,10,0.00
2013-7-25,67,67,67,43,43,43,41,41,41,0.00,40.00,0,0,6,0.00
2013-7-26,85,66,48,46,40,32,93,45,14,0.00,40.00,6,3,11,0.00
2013-7-27,61,58,54,44,43,40,61,58,49,0.00,40.00,6,3,14,0.00